RYR34QB EGKK-EIDW

Flight info

Callsign RYR34QB
Flight time 0h 57m
Altitude 24000
Route IMVUR N63 VOUGA N14 NUBRI/N0454F340 N14 BIBPE DCT OKTAD DCT MEDOG DCT KRAGY DCT PEMOB M17 VATRY VATRY4L
Aircraft B738/M-SDE2E3FGHIRWXY/LB1

Departure

Time 2026-05-05 21:19
Airport London Gatwick Airport (EGKK)

Arrival

Time 2026-05-05 22:17
Airport Dublin Airport (EIDW)
Time Latitude Longitude Altitude Speed Heading
2026-05-05 20:57 51.15367 -0.16280 204 ft 0 kts 358°
2026-05-05 21:12 51.15360 -0.16280 204 ft 2 kts 357°
2026-05-05 21:12 51.15343 -0.16278 207 ft 2 kts 356°
2026-05-05 21:12 51.15327 -0.16277 207 ft 2 kts 356°
2026-05-05 21:12 51.15318 -0.16276 210 ft 1 kts 357°
2026-05-05 21:13 51.15317 -0.16276 210 ft 0 kts 357°
2026-05-05 21:14 51.15318 -0.16276 210 ft 0 kts 350°
2026-05-05 21:14 51.15323 -0.16287 216 ft 3 kts 302°
2026-05-05 21:14 51.15317 -0.16342 209 ft 8 kts 258°
2026-05-05 21:14 51.15300 -0.16468 212 ft 15 kts 258°
2026-05-05 21:15 51.15301 -0.16664 209 ft 21 kts 284°
2026-05-05 21:15 51.15290 -0.16918 210 ft 26 kts 258°
2026-05-05 21:15 51.15248 -0.17220 204 ft 30 kts 255°
2026-05-05 21:15 51.15201 -0.17567 213 ft 34 kts 258°
2026-05-05 21:16 51.15148 -0.17956 204 ft 38 kts 257°
2026-05-05 21:16 51.15089 -0.18380 207 ft 40 kts 257°
2026-05-05 21:16 51.15030 -0.18822 202 ft 41 kts 258°
2026-05-05 21:16 51.14966 -0.19269 210 ft 41 kts 257°
2026-05-05 21:17 51.14905 -0.19723 209 ft 42 kts 258°
2026-05-05 21:17 51.14839 -0.20184 214 ft 42 kts 257°
2026-05-05 21:17 51.14806 -0.20401 207 ft 9 kts 255°
2026-05-05 21:17 51.14791 -0.20514 206 ft 12 kts 257°
2026-05-05 21:18 51.14763 -0.20686 211 ft 19 kts 240°
2026-05-05 21:18 51.14644 -0.20683 207 ft 18 kts 168°
2026-05-05 21:18 51.14597 -0.20616 208 ft 6 kts 88°
2026-05-05 21:18 51.14607 -0.20551 213 ft 6 kts 76°
2026-05-05 21:19 51.14626 -0.20418 213 ft 37 kts 77°
2026-05-05 21:19 51.14742 -0.19588 212 ft 113 kts 77°
2026-05-05 21:19 51.14972 -0.18021 239 ft 173 kts 75°
2026-05-05 21:19 51.15279 -0.16045 812 ft 194 kts 75°
2026-05-05 21:20 51.15619 -0.13872 1497 ft 204 kts 77°
2026-05-05 21:20 51.15887 -0.11760 2451 ft 198 kts 77°
2026-05-05 21:20 51.16160 -0.09567 2927 ft 206 kts 77°
2026-05-05 21:20 51.16532 -0.07278 2976 ft 216 kts 60°
2026-05-05 21:21 51.17599 -0.05648 2999 ft 218 kts 25°
2026-05-05 21:21 51.19084 -0.05166 2990 ft 221 kts 359°
2026-05-05 21:21 51.20604 -0.05538 3005 ft 222 kts 346°
2026-05-05 21:21 51.21925 -0.06806 3004 ft 226 kts 314°
2026-05-05 21:22 51.22644 -0.09066 3165 ft 238 kts 281°
2026-05-05 21:22 51.22628 -0.11722 3868 ft 244 kts 264°
2026-05-05 21:22 51.22330 -0.14443 4538 ft 253 kts 261°
2026-05-05 21:22 51.21975 -0.17269 4983 ft 272 kts 261°
2026-05-05 21:23 51.21598 -0.20284 4974 ft 276 kts 261°
2026-05-05 21:23 51.21232 -0.23273 4990 ft 274 kts 261°
2026-05-05 21:23 51.20884 -0.26208 5257 ft 271 kts 261°
2026-05-05 21:23 51.20539 -0.29170 5241 ft 275 kts 261°
2026-05-05 21:24 51.20190 -0.32170 5305 ft 272 kts 261°
2026-05-05 21:24 51.19844 -0.35096 5874 ft 269 kts 261°
2026-05-05 21:24 51.19471 -0.38033 6392 ft 273 kts 260°
2026-05-05 21:24 51.19082 -0.41024 6886 ft 277 kts 260°
2026-05-05 21:25 51.18690 -0.44038 7383 ft 278 kts 260°
2026-05-05 21:25 51.18296 -0.47074 7901 ft 280 kts 260°
2026-05-05 21:25 51.17900 -0.50126 8406 ft 282 kts 260°
2026-05-05 21:25 51.17496 -0.53196 8925 ft 284 kts 261°
2026-05-05 21:26 51.17534 -0.56304 9417 ft 281 kts 292°
2026-05-05 21:26 51.18555 -0.58819 10078 ft 279 kts 314°
2026-05-05 21:26 51.19896 -0.61186 10404 ft 298 kts 313°
2026-05-05 21:26 51.21302 -0.63732 10582 ft 321 kts 312°
2026-05-05 21:27 51.22813 -0.66513 10748 ft 342 kts 311°
2026-05-05 21:27 51.24407 -0.69484 10961 ft 360 kts 311°
2026-05-05 21:27 51.26053 -0.72581 11440 ft 368 kts 311°
2026-05-05 21:27 51.27719 -0.75734 12096 ft 372 kts 310°
2026-05-05 21:28 51.29388 -0.78907 12771 ft 375 kts 310°
2026-05-05 21:28 51.31069 -0.82111 13427 ft 378 kts 310°
2026-05-05 21:28 51.32192 -0.84256 13834 ft 381 kts 310°
2026-05-05 21:28 51.33901 -0.87522 14418 ft 384 kts 310°
2026-05-05 21:29 51.35623 -0.90819 15004 ft 387 kts 310°
2026-05-05 21:29 51.37356 -0.94141 15553 ft 391 kts 309°
2026-05-05 21:29 51.39106 -0.97499 16102 ft 394 kts 309°
2026-05-05 21:29 51.40874 -1.00897 16626 ft 399 kts 309°
2026-05-05 21:30 51.42659 -1.04330 17161 ft 402 kts 309°
2026-05-05 21:30 51.44437 -1.07756 17701 ft 406 kts 309°
2026-05-05 21:30 51.46252 -1.11258 18215 ft 410 kts 309°
2026-05-05 21:30 51.48086 -1.14800 18683 ft 412 kts 309°
2026-05-05 21:31 51.49921 -1.18350 19276 ft 412 kts 309°
2026-05-05 21:31 51.51757 -1.21906 19751 ft 414 kts 309°
2026-05-05 21:31 51.53579 -1.25442 20186 ft 417 kts 309°
2026-05-05 21:31 51.55439 -1.29055 20667 ft 419 kts 308°
2026-05-05 21:32 51.57307 -1.32687 21143 ft 421 kts 308°
2026-05-05 21:32 51.59180 -1.36335 21616 ft 423 kts 308°
2026-05-05 21:32 51.60997 -1.40082 22086 ft 424 kts 303°
2026-05-05 21:32 51.62467 -1.44191 22517 ft 425 kts 296°
2026-05-05 21:33 51.63813 -1.48383 22955 ft 427 kts 296°
2026-05-05 21:33 51.65177 -1.52656 23370 ft 429 kts 296°
2026-05-05 21:33 51.66564 -1.56932 23734 ft 432 kts 296°
2026-05-05 21:33 51.67972 -1.61222 24052 ft 434 kts 296°
2026-05-05 21:34 51.69359 -1.65573 24355 ft 436 kts 292°
2026-05-05 21:34 51.70398 -1.70186 24651 ft 437 kts 284°
2026-05-05 21:34 51.70972 -1.74994 24960 ft 438 kts 275°
2026-05-05 21:34 51.71270 -1.79838 25273 ft 440 kts 275°
2026-05-05 21:35 51.71585 -1.84779 25566 ft 442 kts 276°
2026-05-05 21:35 51.72136 -1.89673 25844 ft 446 kts 282°
2026-05-05 21:35 51.72862 -1.94544 26136 ft 448 kts 283°
2026-05-05 21:35 51.73632 -1.99424 26423 ft 450 kts 283°
2026-05-05 21:36 51.74408 -2.04336 26715 ft 452 kts 283°
2026-05-05 21:36 51.75170 -2.09270 26960 ft 453 kts 282°
2026-05-05 21:36 51.75910 -2.14163 27236 ft 455 kts 282°
2026-05-05 21:36 51.76658 -2.19204 27569 ft 456 kts 282°
2026-05-05 21:37 51.77381 -2.24122 27957 ft 455 kts 282°
2026-05-05 21:37 51.78106 -2.29089 28370 ft 453 kts 282°
2026-05-05 21:37 51.78826 -2.34038 28747 ft 453 kts 282°
2026-05-05 21:37 51.79545 -2.38987 29084 ft 453 kts 282°
2026-05-05 21:38 51.80263 -2.43941 29428 ft 453 kts 282°
2026-05-05 21:38 51.80980 -2.48896 29806 ft 452 kts 282°
2026-05-05 21:38 51.81694 -2.53853 30181 ft 451 kts 282°
2026-05-05 21:38 51.82383 -2.58741 30484 ft 450 kts 282°
2026-05-05 21:39 51.83058 -2.63692 30782 ft 450 kts 282°
2026-05-05 21:39 51.83721 -2.68639 31086 ft 449 kts 282°
2026-05-05 21:39 51.84380 -2.73584 31339 ft 450 kts 282°
2026-05-05 21:39 51.85042 -2.78557 31590 ft 450 kts 282°
2026-05-05 21:40 51.85693 -2.83447 31842 ft 450 kts 282°
2026-05-05 21:40 51.86352 -2.88397 32135 ft 449 kts 282°
2026-05-05 21:40 51.87007 -2.93330 32426 ft 448 kts 282°
2026-05-05 21:40 51.87668 -2.98323 32697 ft 448 kts 283°
2026-05-05 21:41 51.88310 -3.03187 32960 ft 448 kts 282°
2026-05-05 21:41 51.88958 -3.08116 33207 ft 447 kts 282°
2026-05-05 21:41 51.89604 -3.13043 33472 ft 447 kts 282°
2026-05-05 21:41 51.90248 -3.17970 33734 ft 446 kts 282°
2026-05-05 21:42 51.90888 -3.22886 33999 ft 446 kts 282°
2026-05-05 21:42 51.91526 -3.27808 34015 ft 448 kts 282°
2026-05-05 21:42 51.92799 -3.37674 34025 ft 446 kts 282°
2026-05-05 21:43 51.94059 -3.47499 34029 ft 444 kts 282°
2026-05-05 21:43 51.95298 -3.57228 34026 ft 442 kts 282°
2026-05-05 21:44 51.96537 -3.66993 34028 ft 441 kts 282°
2026-05-05 21:44 51.97769 -3.76744 34034 ft 440 kts 281°
2026-05-05 21:45 51.98983 -3.86418 34021 ft 439 kts 281°
2026-05-05 21:45 52.00194 -3.96147 34031 ft 439 kts 281°
2026-05-05 21:46 52.01395 -4.05863 34038 ft 438 kts 281°
2026-05-05 21:46 52.02587 -4.15572 34038 ft 438 kts 281°
2026-05-05 21:47 52.03761 -4.25215 34033 ft 438 kts 281°
2026-05-05 21:47 52.04935 -4.34918 34023 ft 432 kts 281°
2026-05-05 21:48 52.05502 -4.39631 34012 ft 417 kts 281°
2026-05-05 21:48 52.06048 -4.44183 34012 ft 403 kts 281°
2026-05-05 21:48 52.06574 -4.48590 34020 ft 389 kts 281°
2026-05-05 21:48 52.07073 -4.52777 34012 ft 376 kts 281°
2026-05-05 21:49 52.07560 -4.56885 34020 ft 363 kts 281°
2026-05-05 21:49 52.08037 -4.60915 34030 ft 363 kts 281°
2026-05-05 21:49 52.09002 -4.69110 34060 ft 374 kts 281°
2026-05-05 21:50 52.09990 -4.77556 34055 ft 385 kts 281°
2026-05-05 21:50 52.10987 -4.86116 34055 ft 388 kts 281°
2026-05-05 21:51 52.11979 -4.94706 34036 ft 382 kts 281°
2026-05-05 21:51 52.12937 -5.03112 34047 ft 377 kts 280°
2026-05-05 21:52 52.15197 -5.15246 34077 ft 379 kts 307°
2026-05-05 21:52 52.17085 -5.18289 34031 ft 385 kts 325°
2026-05-05 21:53 52.19418 -5.20459 34081 ft 388 kts 331°
2026-05-05 21:53 52.24277 -5.24343 34039 ft 387 kts 332°
2026-05-05 21:54 52.29107 -5.28210 34046 ft 385 kts 332°
2026-05-05 21:54 52.33873 -5.32124 34068 ft 386 kts 331°
2026-05-05 21:55 52.38692 -5.36114 34067 ft 388 kts 331°
2026-05-05 21:55 52.43495 -5.40097 34055 ft 386 kts 331°
2026-05-05 21:56 52.48379 -5.44154 33422 ft 409 kts 331°
2026-05-05 21:56 52.50974 -5.46314 32921 ft 426 kts 331°
2026-05-05 21:56 52.53662 -5.48554 32417 ft 438 kts 331°
2026-05-05 21:56 52.56414 -5.50713 31877 ft 437 kts 336°
2026-05-05 21:57 52.59287 -5.52361 31369 ft 434 kts 340°
2026-05-05 21:57 52.62137 -5.53779 30802 ft 432 kts 341°
2026-05-05 21:57 52.65017 -5.55157 30184 ft 431 kts 341°
2026-05-05 21:57 52.67903 -5.56551 29480 ft 431 kts 341°
2026-05-05 21:58 52.70773 -5.57970 28775 ft 431 kts 341°
2026-05-05 21:58 52.73637 -5.59419 28099 ft 430 kts 340°
2026-05-05 21:58 52.76493 -5.60887 27432 ft 429 kts 340°
2026-05-05 21:58 52.79335 -5.62361 26779 ft 428 kts 340°
2026-05-05 21:59 52.82179 -5.63842 26141 ft 427 kts 340°
2026-05-05 21:59 52.85015 -5.65322 25519 ft 425 kts 340°
2026-05-05 21:59 52.87810 -5.66781 24898 ft 419 kts 340°
2026-05-05 21:59 52.90573 -5.68225 24294 ft 414 kts 340°
2026-05-05 22:00 52.93300 -5.69652 23703 ft 409 kts 341°
2026-05-05 22:00 52.95994 -5.71066 23021 ft 404 kts 340°
2026-05-05 22:00 52.98664 -5.72466 22339 ft 399 kts 340°
2026-05-05 22:00 53.01294 -5.73846 21664 ft 392 kts 340°
2026-05-05 22:01 53.03845 -5.75187 21016 ft 385 kts 340°
2026-05-05 22:01 53.06382 -5.76522 20376 ft 378 kts 340°
2026-05-05 22:01 53.08883 -5.77802 19744 ft 373 kts 345°
2026-05-05 22:01 53.11455 -5.78056 19112 ft 372 kts
2026-05-05 22:02 53.13890 -5.76765 18836 ft 361 kts 26°
2026-05-05 22:02 53.15906 -5.74435 18737 ft 346 kts 41°
2026-05-05 22:02 53.17388 -5.71391 18624 ft 332 kts 57°
2026-05-05 22:02 53.18499 -5.68178 18524 ft 316 kts 59°
2026-05-05 22:03 53.19544 -5.65040 18414 ft 301 kts 56°
2026-05-05 22:03 53.20929 -5.62562 18072 ft 289 kts 34°
2026-05-05 22:03 53.22554 -5.60612 17622 ft 287 kts 33°
2026-05-05 22:03 53.24175 -5.58659 17149 ft 286 kts 33°
2026-05-05 22:04 53.25776 -5.56702 16717 ft 284 kts 34°
2026-05-05 22:04 53.27365 -5.54745 16294 ft 281 kts 34°
2026-05-05 22:04 53.28946 -5.52917 15864 ft 277 kts 23°
2026-05-05 22:04 53.30769 -5.52014 15420 ft 272 kts
2026-05-05 22:05 53.32620 -5.51372 15013 ft 270 kts
2026-05-05 22:05 53.34458 -5.50710 14603 ft 268 kts 10°
2026-05-05 22:05 53.36279 -5.50039 14219 ft 267 kts 10°
2026-05-05 22:05 53.38091 -5.49365 13865 ft 267 kts 10°
2026-05-05 22:06 53.39885 -5.48756 13582 ft 264 kts
2026-05-05 22:06 53.41682 -5.49075 13279 ft 258 kts 345°
2026-05-05 22:06 53.43437 -5.49708 12984 ft 257 kts 346°
2026-05-05 22:06 53.45192 -5.50320 12671 ft 257 kts 347°
2026-05-05 22:07 53.46942 -5.50919 12391 ft 255 kts 347°
2026-05-05 22:07 53.48683 -5.51511 12108 ft 254 kts 347°
2026-05-05 22:07 53.50411 -5.52098 11821 ft 253 kts 346°
2026-05-05 22:07 53.52023 -5.53190 11501 ft 250 kts 324°
2026-05-05 22:08 53.53426 -5.54905 11239 ft 248 kts 323°
2026-05-05 22:08 53.54817 -5.56587 10961 ft 248 kts 323°
2026-05-05 22:08 53.56224 -5.58278 10692 ft 247 kts 324°
2026-05-05 22:08 53.57556 -5.60075 10410 ft 246 kts 308°
2026-05-05 22:09 53.58260 -5.62609 10321 ft 234 kts 279°
2026-05-05 22:09 53.58288 -5.64388 10213 ft 228 kts 263°
2026-05-05 22:09 53.57462 -5.67686 9545 ft 238 kts 232°
2026-05-05 22:09 53.56251 -5.69643 9046 ft 244 kts 221°
2026-05-05 22:10 53.55366 -5.70843 8696 ft 248 kts 220°
2026-05-05 22:10 53.53997 -5.72660 8187 ft 253 kts 220°
2026-05-05 22:10 53.52156 -5.75131 7515 ft 257 kts 221°
2026-05-05 22:10 53.51207 -5.76419 7184 ft 259 kts 221°
2026-05-05 22:11 53.49811 -5.78320 6692 ft 262 kts 221°
2026-05-05 22:11 53.48388 -5.80261 6174 ft 262 kts 221°
2026-05-05 22:11 53.47045 -5.82296 5626 ft 257 kts 229°
2026-05-05 22:11 53.45843 -5.84487 5120 ft 254 kts 230°
2026-05-05 22:12 53.44662 -5.86675 4592 ft 251 kts 230°
2026-05-05 22:12 53.43622 -5.88574 4121 ft 249 kts 229°
2026-05-05 22:12 53.42445 -5.90702 3707 ft 243 kts 229°
2026-05-05 22:12 53.41336 -5.92698 3581 ft 225 kts 231°
2026-05-05 22:13 53.40670 -5.94903 3398 ft 206 kts 268°
2026-05-05 22:13 53.40658 -5.97258 3187 ft 201 kts 272°
2026-05-05 22:13 53.40680 -5.99599 3046 ft 201 kts 276°
2026-05-05 22:13 53.40779 -6.01954 2885 ft 205 kts 278°
2026-05-05 22:14 53.40906 -6.04359 2638 ft 207 kts 278°
2026-05-05 22:14 53.41034 -6.06758 2361 ft 205 kts 278°
2026-05-05 22:14 53.41159 -6.09093 2105 ft 201 kts 278°
2026-05-05 22:14 53.41282 -6.11389 1835 ft 194 kts 278°
2026-05-05 22:15 53.41400 -6.13584 1578 ft 183 kts 278°
2026-05-05 22:15 53.41511 -6.15646 1338 ft 172 kts 277°
2026-05-05 22:15 53.41614 -6.17541 1121 ft 158 kts 277°
2026-05-05 22:15 53.41709 -6.19293 949 ft 146 kts 277°
2026-05-05 22:16 53.41801 -6.20970 743 ft 144 kts 277°
2026-05-05 22:16 53.41891 -6.22624 568 ft 142 kts 276°
2026-05-05 22:16 53.41980 -6.24259 342 ft 141 kts 276°
2026-05-05 22:16 53.42070 -6.25885 218 ft 139 kts 276°
2026-05-05 22:17 53.42155 -6.27466 209 ft 126 kts 275°
2026-05-05 22:17 53.42227 -6.28728 210 ft 84 kts 273°
2026-05-05 22:17 53.42256 -6.29043 211 ft 16 kts 305°
2026-05-05 22:17 53.42357 -6.29071 210 ft 15 kts 13°
2026-05-05 22:18 53.42410 -6.28939 214 ft 15 kts 93°
2026-05-05 22:18 53.42402 -6.28771 210 ft 16 kts 95°
2026-05-05 22:18 53.42389 -6.28523 210 ft 25 kts 95°
2026-05-05 22:18 53.42372 -6.28215 213 ft 28 kts 95°
2026-05-05 22:19 53.42353 -6.27871 210 ft 31 kts 95°
2026-05-05 22:19 53.42333 -6.27493 210 ft 34 kts 95°
2026-05-05 22:19 53.42311 -6.27085 217 ft 36 kts 95°
2026-05-05 22:19 53.42289 -6.26654 210 ft 38 kts 90°
2026-05-05 22:20 53.42263 -6.26202 217 ft 40 kts 96°
2026-05-05 22:20 53.42241 -6.25828 213 ft 33 kts 95°
2026-05-05 22:20 53.42218 -6.25425 210 ft 36 kts 95°
2026-05-05 22:20 53.42195 -6.24996 210 ft 38 kts 95°
2026-05-05 22:21 53.42217 -6.24749 213 ft 18 kts 24°
2026-05-05 22:21 53.42337 -6.24802 210 ft 19 kts
2026-05-05 22:21 53.42415 -6.24629 214 ft 3 kts 93°
2026-05-05 22:21 53.42393 -6.24591 210 ft 7 kts 134°
2026-05-05 22:22 53.42358 -6.24533 210 ft 0 kts 135°